Terug naar catalogus

STARLINK-3570

ActiefCommunicatieVLEO
NORAD 51882·PAYLOAD·🇺🇸 United States

Gelanceerd Mar 3, 2022 vanaf Cape Canaveral Space Force Station

Loading…

Volgende Passages (komende 24 uur)

TLE

VersSource: CelesTrak SupGP

Epoch: Sep 15, 2026, 01:29 UTC

1 51882C 22022AG  26258.06229167 -.00055804  00000+0 -17946-2 0  2588
2 51882  53.1570 215.0835 0001252  90.1241  55.5179 15.31727702    16

Volg STARLINK-3570 in realtime met AllMySat

Download on the App Store